This is the latest recevied weather packets stored in our database for station/object E27IHO-13. If no packets are shown the sender has not sent any weather packets the latest 10 day(s).
| Time | Temp. | Humidity | Pressure | Rain* | Wind** | Luminosity | Snow |
|---|---|---|---|---|---|---|---|
| 1777788706 | 37.78° C | 46% | 1008 hPa | - | - | 0 W/m² | - |
| 1777772308 | 33.89° C | 59% | 1011 hPa | - | - | 0 W/m² | - |
| 1777771986 | 34.44° C | 59% | 1011 hPa | - | - | 0 W/m² | - |
| 1777771664 | 33.33° C | 62% | 1011 hPa | - | - | 0 W/m² | - |
| 1777753798 | 30° C | 74% | 1008 hPa | - | - | 0 W/m² | - |
| 1777753476 | 30° C | 74% | 1008 hPa | - | - | 0 W/m² | - |
| 1777753154 | 30° C | 74% | 1008 hPa | - | - | 0 W/m² | - |
| 1777752832 | 30° C | 74% | 1008 hPa | - | - | 0 W/m² | - |
| 1777752510 | 30° C | 74% | 1008 hPa | - | - | 0 W/m² | - |
| 1777752188 | 30° C | 73% | 1008 hPa | - | - | 0 W/m² | - |
| 1777751866 | 30° C | 73% | 1008 hPa | - | - | 0 W/m² | - |
| 1777726697 | 33.33° C | 58% | 1007 hPa | - | - | 0 W/m² | - |
| 1777724744 | 33.33° C | 57% | 1007 hPa | - | - | 0 W/m² | - |
| 1777724422 | 33.89° C | 57% | 1007 hPa | - | - | 0 W/m² | - |
| 1777724100 | 33.89° C | 57% | 1007 hPa | - | - | 0 W/m² | - |
| 1777723778 | 33.89° C | 56% | 1007 hPa | - | - | 0 W/m² | - |
| 1777702002 | 37.22° C | 50% | 1009 hPa | - | - | 0 W/m² | - |
| 1777701679 | 37.22° C | 50% | 1009 hPa | - | - | 0 W/m² | - |
| 1777701357 | 36.11° C | 51% | 1009 hPa | - | - | 0 W/m² | - |
| 1777701035 | 37.22° C | 50% | 1009 hPa | - | - | 0 W/m² | - |
| 1777700713 | 36.67° C | 50% | 1009 hPa | - | - | 0 W/m² | - |
| 1777700391 | 36.67° C | 50% | 1009 hPa | - | - | 0 W/m² | - |
| 1777700069 | 36.67° C | 50% | 1009 hPa | - | - | 0 W/m² | - |
| 1777699747 | 36.67° C | 47% | 1009 hPa | - | - | 0 W/m² | - |
| 1777699425 | 36.67° C | 48% | 1009 hPa | - | - | 0 W/m² | - |
* Rain since midnight (hover to see other rain measurements)
** Current wind speed in m/s (hover to see current wind gust speed)